{"data":{"norad_id":57828,"intl_designator":"2023-138W","name":"STARLINK-30411","alt_names":[],"object_type":"PAYLOAD","status":"ACTIVE","operator":null,"country":"US","launch_date":"2023-09-09","launch_site_code":"AFETR","launch_vehicle":null,"mission":null,"orbit_class":"UNKNOWN","rcs_meters":null,"size_class":null,"mass_kg":null,"dimensions":null,"purposes":["comms"],"wikipedia_slug":null,"has_3d_model":false,"image_url":null,"decayed_at":null,"tle_current":{"epoch":"2026-09-20T13:35:48.852960Z","epoch_age_seconds":128899,"freshness":"FRESH","line1":"1 57828U 23138W   26263.56653765  .00000083  00000+0  12527-4 0  9990","line2":"2 57828  43.0026 213.4726 0001118 270.8070  89.2654 15.27581576168474","mean_motion":15.27581576,"eccentricity":0.0001118,"inclination_deg":43.0026,"raan_deg":213.4726,"arg_perigee_deg":270.807,"mean_anomaly_deg":89.2654,"bstar":1.2527e-5,"rev_number":16847,"period_min":94.266651459012,"perigee_km":482.27729685481,"apogee_km":483.81145701069,"semimajor_km":6861.1813769327,"source":"CELESTRAK","updated_at":"2026-09-21T09:00:33.710880Z"}}}